Regional Weather Roundup
Issued by NWS

Home | Current Version | Previous Version | Text Only | Print | Product List | Glossary Off
Versions: 1 2 3 4 5 6 7 8 9 10 11 12 13 14 15 16 17 18 19 20 21 22 23 24 25 26 27 28 29 30 31 32 33 34 35 36 37 38 39 40 41 42 43 44 45 46 47 48 49 50

503
ASUS43 KMKX 221920
RWRWI

WISCONSIN REGIONAL WEATHER ROUNDUP
NATIONAL WEATHER SERVICE MILWAUKEE/SULLIVAN WI
100 PM CST MON JAN 22 2018

NOTE: "FAIR" INDICATES FEW OR NO CLOUDS BELOW 12,000 FEET WITH NO
SIGNIFICANT WEATHER AND/OR OBSTRUCTIONS TO VISIBILITY.

WIZ001-002-006>008-014>016-023>028-222000-
NORTHWEST WISCONSIN

CITY           SKY/WX    TMP DP  RH WIND       PRES   REMARKS
SUPERIOR ARPT  CLOUDY    26  24  93 NE18G25   29.92F WCI  12
ASHLAND        SNOW      27  25  92 NE25G36   29.88F VSB 1/2 WCI  12
HAYWARD        SNOW      29  25  85 N16       29.78F VSB 1/2 WCI  17
SIREN          LGT SNOW  30  25  81 NE17G29   29.77F WCI  18
CUMBERLAND     SNOW      28  27  93 N21G31    29.68F VSB 1/4 WCI  15
RICE LAKE      LGT SNOW  30  28  95 N25       29.69F VSB 3/4 WCI  15
CHETEK         SNOW      31  29  94 N15G24    29.66F VSB 1/2 WCI  20
LADYSMITH      SNOW      31  29  93 N20G28    29.68F VSB 1/2 WCI  19
EAU CLAIRE     HVY SNOW  31  30  96 NE22G37   29.56F VSB 1/4 WCI  18
MENOMONIE      HVY SNOW  32  31  96 N24G32    29.59F VSB 1/4 WCI  19
NEW RICHMOND   SNOW      30  28  94 N21G28    29.66F VSB 1/2 WCI  17
OSCEOLA        SNOW      31  31 100 N15G25    29.73F VSB 1/2 WCI  20
$$

WIZ003>005-009-010-017-018-222000-
NORTH CENTRAL WISCONSIN

CITY           SKY/WX    TMP DP  RH WIND       PRES   REMARKS
MANITOWISH WTR LGT SNOW  27  27 100 N10G16    29.74F VSB 3/4 WCI  17
ARBOR VITAE    LGT SNOW  32  30  92 N12       29.71F VSB 3/4 WCI  23
WOODRUFF       LGT SNOW  32  30  92 N12       29.71F VSB 3/4 WCI  23
RHINELANDER    SNOW      31  30  96 NE14G22   29.66F VSB 1/4 WCI  21
EAGLE RIVER    SNOW      30  29  98 NE16      29.70F VSB 1/2 WCI  18
LAND O LAKES   LGT SNOW  29  28  93 NE10G18   29.76F VSB 3/4 WCI  20
PHILLIPS       SNOW      28  28  99 N17G26    29.68F VSB 1/2 WCI  16
TOMAHAWK       SNOW      31  29  92 N8G17     29.66F VSB 1/2 WCI  23
MEDFORD        LGT SNOW  32  30  92 NE20G29   29.57F VSB 1   WCI  20
MERRILL        LGT SNOW  32  32  99 NE13G22   29.61F VSB 3/4 WCI  23
$$

WIZ029-030-035-036-043>047-222000-
CENTRAL WISCONSIN

CITY           SKY/WX    TMP DP  RH WIND       PRES   REMARKS
WAUSAU         LGT SNOW  33  31  92 NE13G22   29.57F VSB 1   WCI  24
MOSINEE        LGT SNOW  34  32  93 NE18G28   29.58F VSB 1   WCI  23
MARSHFIELD     LGT RAIN  33  32  96 NE21G29   29.52F FOG     WCI  21
STEVENS POINT  MIX PCPN  32  32 100 NE20G25   29.56F WCI  20
WAUPACA        CLOUDY    36  33  89 NE14G21   29.57F FOG     WCI  27
WAUTOMA        MIX PCPN  35  33  92 NE21G31   29.52F WCI  24
WISC RAPIDS    NOT AVBL
CAMP DOUGLAS   CLOUDY    36  36 100 NE16      29.48F WCI  26
$$

WIZ011>013-019>022-031-037>040-048>050-222000-
NORTHEAST WISCONSIN

CITY           SKY/WX    TMP DP  RH WIND       PRES   REMARKS
ANTIGO         LGT SNOW  32  31  97 NE18      29.62F VSB 3/4 WCI  20
SHAWANO        CLOUDY    34  32  91 NE16G26   29.62F WCI  24
OCONTO         CLOUDY    31  30  93 NE18G26   29.64F WCI  20
STURGEON BAY   LGT RAIN  33  32  96 NE16G32   29.63F FOG     WCI  23
GREEN BAY      MIX PCPN  33  31  92 NE23G31   29.59F FOG     WCI  21
MANITOWOC      LGT RAIN  36  36 100 NE12G21   29.54F FOG     WCI  27
APPLETON       LGT RAIN  34  34 100 NE15G25   29.56F VSB 1   WCI  24
CLINTONVILLE   DRIZZLE   32  32 100 E15G24    29.61F WCI  22
OSHKOSH        CLOUDY    35  34  96 NE14      29.52F FOG     WCI  26
$$

WIZ032>034-041-042-053>061-222000-
SOUTHWEST WISCONSIN

CITY           SKY/WX    TMP DP  RH WIND       PRES   REMARKS
LA CROSSE      HVY RAIN  37  34  89 CALM      29.55R VSB 1
SPARTA         LGT RAIN  34  33  96 E15G24    29.49F WCI  24
VIROQUA        CLOUDY    34  34 100 S3        29.51R
BOSCOBEL       LGT RAIN  37  32  82 NE6       29.49F WCI  32
PRAIRIE DU CHI DRIZZLE   37  34  90 NE3       29.47S
PLATTEVILLE    CLOUDY    39  39 100 NE9       29.44F WCI  32
$$

WIZ056-057-062-063-064-067-068-222000-
SOUTH CENTRAL WISCONSIN

CITY           SKY/WX    TMP DP  RH WIND       PRES   REMARKS
REEDSBURG      LGT RAIN  35  35 100 NE16G23   29.45F WCI  25
BARABOO/DELLS  LGT RAIN  35  34  96 NE21G29   29.44F WCI  23
LONE ROCK      RAIN      37  37 100 E6        29.50R FOG     WCI  32
MINERAL POINT  LGT RAIN  37  37 100 NE5       29.44F WCI  34
MADISON        LGT RAIN  37  37 100 NE9       29.47S FOG     WCI  30
MIDDLETON      CLOUDY    38  38 100 S9G16     29.48R WCI  32
WATERTOWN      DRIZZLE   38  38 100 NE6       29.46F WCI  33
MONROE         FOG       37  37 100 NE8       29.43F VSB 3/4 WCI  31
JANESVILLE     CLOUDY    41  41 100 NE6       29.44F FOG
$$

WIZ051-052-058>065-066-070>072-222000-
SOUTHEAST WISCONSIN

CITY           SKY/WX    TMP DP  RH WIND       PRES   REMARKS
MILWAUKEE      DRZL/FOG  41  40  96 CALM      29.47F VSB 3/4
WAUKESHA       FOG       36  36 100 NE5       29.48F VSB 3/4 WCI  32
MILWAUKEE/TIMM DRIZZLE   37  36  93 N5        29.49F FOG     WCI  34
RACINE         CLOUDY    45  45 100 S8        29.47F FOG
BURLINGTON     FOG       41  40  97 CALM      29.45F VSB 3/4
KENOSHA        CLOUDY    50  48  93 S12G20    29.45F FOG
FOND DU LAC    LGT RAIN  37  34  89 NE10      29.51F FOG     WCI  30
SHEBOYGAN      MIX PCPN  36  36 100 NE20G29   29.51F FOG     WCI  25
WEST BEND      DRIZZLE   36  36 100 NE5       29.49F WCI  32
JUNEAU         HVY RAIN  36  35  98 NE12      29.49F WCI  28
$$

LSZ147-162-222000-
LAKE SUPERIOR

STATION/POSITION TIME  TEMP    WIND        PRES    WAVE
                       AIR SEA DIR/SP/G            HT/PER
                 (UTC) (F)     (DEG/KT/KT) (MB)    (FT/S)
DEVILS ISLAND    1900   24      40/ 24/ 27 1014.4F
SAXON HARBOR     1848   29      50/ 26/ 28 1011.2F
$$

LMZ867-665-643>646-222000-
LAKE MICHIGAN

STATION/POSITION TIME  TEMP    WIND        PRES    WAVE
                       AIR SEA DIR/SP/G            HT/PER
                 (UTC) (F)     (DEG/KT/KT) (MB)    (FT/S)
NORTHPORT PIER   1907   31      60/ 15     1005.4
KEWAUNEE LAKESHO 1854   35      40/ 18/ 26 1001.8F
SHEBOYGAN LAKESH 1900   36      20/ 18/ 19  999.7F
PORT WASHINGTON  1840   38     360/  5/ 10 1000.0F
MILWAUKEE LAKESH 1900   37      30/  4/  5   N/A
KENOSHA   LAKESH 1900   40     170/  8/ 10  998.3
$$

TC  - TEMPERATURE IN CELSIUS
VSB - VISIBILITY IN STATUTE MILES
WCI - WIND CHILL INDEX
HX  - HEAT INDEX





USA.gov is the U.S. government's official web portal to all federal, state and local government web resources and services.